Weather History for Cape Girardeau, MO

Change the Weather History Date:

Monday, March 18, 2013

  Actual Average Record
Temperature  
Mean Temperature 44 °F 48 °F  
Max Temperature 52 °F 59 °F 79 °F (1982)
Min Temperature 35 °F 37 °F 20 °F (1967)
Degree Days  
Heating Degree Days 21 17  
Month to date heating degree days 419 361  
Since 1 July heating degree days 3658 3858  
Cooling Degree Days 0 0  
Month to date cooling degree days 0 0  
Year to date cooling degree days 0 0  
Moisture  
Dew Point 39 °F    
Average Humidity 79    
Maximum Humidity 96    
Minimum Humidity 61    
Precipitation  
Precipitation 0.19 in 0.14 in 11.49 in (2008)
Month to date precipitation 1.68 2.39  
Year to date precipitation 8.30 9.27  
Sea Level Pressure  
Sea Level Pressure 29.78 in    
Wind  
Wind Speed 8 mph (WNW)    
Max Wind Speed 23 mph    
Max Gust Speed 29 mph    
Visibility 8 miles    
Events Rain , Thunderstorm    
T = Trace of Precipitation, MM = Missing Value Source: NWS Daily Summary

Daily Weather History Graph

Daily Weather History Graph

Search for Another Location

Airport:

Trip Planner

Search our weather history database for the weather conditions in past years. The results will help you decide how hot, cold, wet, or windy it might be!

Date:

Astronomy

Mar. 18, 2013 Rise Set
Actual Time 7:04 AM CDT 7:08 PM CDT
Civil Twilight 6:38 AM CDT 7:34 PM CDT
Nautical Twilight 6:08 AM CDT 8:04 PM CDT
Astronomical Twilight 5:37 AM CDT 8:35 PM CDT
Moon 11:11 AM CDT (3/18) 1:00 AM CDT (3/18)
Length of Visible Light 12h 56m
Length of Day
12h 04m
Waxing Crescent, 41% of the Moon is Illuminated
Mar 18
Waxing Crescent
Mar 19
First Quarter
Mar 27
Full
Apr 2
Last Quarter
Apr 10
New

Hourly Weather History & Observations

Time (CDT) Temp. Windchill Dew Point Humidity Pressure Visibility Wind Dir Wind Speed Gust Speed Precip Events Conditions
12:07 AM 39.2 °F 30.8 °F 37.4 °F 93% 29.77 in 10.0 mi North 15.0 mph 24.2 mph 0.00 in Rain Light Rain
12:17 AM 39.2 °F 30.8 °F 37.4 °F 93% 29.77 in 10.0 mi NNE 15.0 mph - 0.00 in Rain Light Rain
12:25 AM 39.2 °F 31.2 °F 37.4 °F 93% 29.83 in 4.0 mi NNW 13.8 mph - 0.06 in Rain , Thunderstorm Heavy Rain
12:35 AM 39.2 °F 30.5 °F 37.4 °F 93% 29.79 in 2.0 mi North 16.1 mph 23.0 mph 0.19 in Rain , Thunderstorm Heavy Rain
12:44 AM 39.2 °F 29.8 °F 37.4 °F 93% 29.73 in 2.5 mi ENE 18.4 mph - 0.23 in Rain , Thunderstorm Thunderstorms and Rain
12:53 AM 39.0 °F 29.0 °F 37.0 °F 93% 29.73 in 1.8 mi ENE 20.7 mph 27.6 mph 0.38 in Rain , Thunderstorm Heavy Thunderstorms and Rain
1:00 AM 39.2 °F 29.3 °F 37.4 °F 93% 29.70 in 3.0 mi ENE 20.7 mph 27.6 mph 0.01 in Rain , Thunderstorm Thunderstorms and Rain
1:15 AM 39.2 °F 29.8 °F 37.4 °F 93% 29.72 in 4.0 mi ENE 18.4 mph 26.5 mph 0.08 in Rain , Thunderstorm Heavy Thunderstorms and Rain
1:32 AM 39.2 °F 29.6 °F 37.4 °F 93% 29.69 in 8.0 mi East 19.6 mph 26.5 mph 0.09 in Rain , Thunderstorm Light Thunderstorms and Rain
1:53 AM 41.0 °F 34.7 °F 37.9 °F 89% 29.72 in 8.0 mi ESE 10.4 mph - 0.10 in Rain , Thunderstorm Rain
2:32 AM 41.0 °F 35.2 °F 39.2 °F 93% 29.70 in 10.0 mi ESE 9.2 mph - 0.10 in Rain Light Rain
2:53 AM 42.1 °F 37.1 °F 39.9 °F 92% 29.69 in 10.0 mi ESE 8.1 mph - 0.10 in   Overcast
3:35 AM 42.8 °F 38.6 °F 39.2 °F 87% 29.68 in 10.0 mi SE 6.9 mph - N/A   Overcast
3:53 AM 42.1 °F 37.7 °F 39.9 °F 92% 29.67 in 10.0 mi SE 6.9 mph - N/A   Overcast
4:50 AM 42.8 °F 41.1 °F 39.2 °F 87% 29.67 in 10.0 mi South 3.5 mph - N/A   Mostly Cloudy
4:53 AM 42.1 °F 39.2 °F 39.9 °F 92% 29.67 in 10.0 mi South 4.6 mph - N/A   Mostly Cloudy
5:05 AM 42.8 °F - 39.2 °F 87% 29.67 in 10.0 mi Calm Calm - N/A   Overcast
5:53 AM 42.1 °F 37.7 °F 39.9 °F 92% 29.70 in 8.0 mi West 6.9 mph - N/A   Overcast
6:43 AM 42.8 °F 38.6 °F 39.2 °F 87% 29.70 in 5.0 mi WSW 6.9 mph - N/A   Overcast
6:53 AM 42.8 °F 40.1 °F 41.0 °F 93% 29.70 in 5.0 mi SW 4.6 mph - N/A   Overcast
7:35 AM 42.8 °F 39.3 °F 39.2 °F 87% 29.71 in 8.0 mi West 5.8 mph - N/A   Overcast
7:53 AM 42.1 °F 38.4 °F 41.0 °F 96% 29.71 in 6.0 mi WNW 5.8 mph - N/A   Overcast
8:53 AM 44.1 °F 41.5 °F 42.1 °F 93% 29.73 in 9.0 mi WSW 4.6 mph - N/A   Overcast
9:13 AM 44.6 °F 38.8 °F 42.8 °F 93% 29.73 in 10.0 mi West 11.5 mph - N/A   Overcast
9:53 AM 46.0 °F 41.9 °F 42.1 °F 86% 29.75 in 10.0 mi West 8.1 mph - N/A   Overcast
10:53 AM 48.0 °F - 43.0 °F 83% 29.79 in 10.0 mi West 8.1 mph - N/A   Overcast
11:11 AM 48.2 °F - 42.8 °F 82% 29.80 in 10.0 mi West 9.2 mph - N/A   Overcast
11:53 AM 48.9 °F - 43.0 °F 80% 29.80 in 10.0 mi WSW 9.2 mph - N/A   Overcast
12:53 PM 48.9 °F - 43.0 °F 80% 29.78 in 10.0 mi West 5.8 mph - N/A   Overcast
1:53 PM 50.0 °F - 43.0 °F 77% 29.79 in 10.0 mi NNW 11.5 mph - N/A   Overcast
2:53 PM 48.9 °F - 39.9 °F 71% 29.81 in 10.0 mi NW 15.0 mph - N/A   Overcast
3:23 PM 48.2 °F - 39.2 °F 71% 29.82 in 10.0 mi NW 13.8 mph 21.9 mph N/A   Overcast
3:46 PM 48.2 °F - 39.2 °F 71% 29.83 in 10.0 mi NW 15.0 mph - N/A   Overcast
3:53 PM 48.9 °F - 39.0 °F 69% 29.83 in 10.0 mi NW 11.5 mph 20.7 mph N/A   Overcast
4:12 PM 51.8 °F - 39.2 °F 62% 29.83 in 10.0 mi WNW 12.7 mph - N/A   Scattered Clouds
4:53 PM 51.1 °F - 39.9 °F 66% 29.84 in 10.0 mi NW 11.5 mph - N/A   Partly Cloudy
5:53 PM 52.0 °F - 39.0 °F 61% 29.86 in 10.0 mi WNW 10.4 mph - N/A   Clear
6:53 PM 50.0 °F - 37.0 °F 61% 29.89 in 10.0 mi NNW 9.2 mph - N/A   Clear
7:53 PM 46.0 °F 43.9 °F 35.1 °F 66% 29.92 in 10.0 mi NW 4.6 mph - N/A   Clear
8:53 PM 39.0 °F 36.8 °F 35.1 °F 86% 29.94 in 10.0 mi SW 3.5 mph - N/A   Clear
9:53 PM 39.0 °F 36.8 °F 34.0 °F 82% 29.96 in 10.0 mi SSW 3.5 mph - N/A   Clear
10:53 PM 36.0 °F 32.1 °F 33.1 °F 89% 29.99 in 10.0 mi WNW 4.6 mph - N/A   Clear
11:53 PM 37.4 °F 32.1 °F 33.8 °F 87% 30.00 in 10.0 mi West 6.9 mph - N/A   Clear